TimeMDT,TemperatureF,Dew PointF,Humidity,Sea Level PressureIn,VisibilityMPH,Wind Direction,Wind SpeedMPH,Gust SpeedMPH,PrecipitationIn,Events,Conditions,WindDirDegrees,DateUTC
12:15 AM,33.8,28.4,81,30.21,10.0,Calm,Calm,-,N/A,,Clear,0,2011-10-10 06:15:00
12:35 AM,32.0,28.4,87,30.21,10.0,North,3.5,-,N/A,,Clear,360,2011-10-10 06:35:00
1:15 AM,32.0,28.4,87,30.21,10.0,North,3.5,-,N/A,,Partly Cloudy,360,2011-10-10 07:15:00
1:35 AM,33.8,28.4,81,30.21,10.0,Calm,Calm,-,N/A,,Mostly Cloudy,0,2011-10-10 07:35:00
1:55 AM,33.8,28.4,81,30.22,10.0,Calm,Calm,-,N/A,,Overcast,0,2011-10-10 07:55:00
2:35 AM,35.6,30.2,81,30.21,10.0,Calm,Calm,-,N/A,,Overcast,0,2011-10-10 08:35:00
2:55 AM,35.6,30.2,81,30.20,10.0,Calm,Calm,-,N/A,,Overcast,0,2011-10-10 08:55:00
3:15 AM,33.8,30.2,87,30.20,10.0,Calm,Calm,-,N/A,,Overcast,0,2011-10-10 09:15:00
3:35 AM,35.6,30.2,81,30.20,10.0,Calm,Calm,-,N/A,,Overcast,0,2011-10-10 09:35:00
3:55 AM,33.8,28.4,81,30.20,10.0,Calm,Calm,-,N/A,,Overcast,0,2011-10-10 09:55:00
4:15 AM,33.8,30.2,87,30.20,10.0,NNW,3.5,-,N/A,,Overcast,340,2011-10-10 10:15:00
4:35 AM,33.8,30.2,87,30.19,10.0,North,3.5,-,N/A,,Overcast,350,2011-10-10 10:35:00
4:55 AM,32.0,28.4,87,30.19,10.0,North,4.6,-,N/A,,Overcast,350,2011-10-10 10:55:00
5:15 AM,32.0,28.4,87,30.20,10.0,North,3.5,-,N/A,,Mostly Cloudy,350,2011-10-10 11:15:00
5:35 AM,30.2,28.4,93,30.20,10.0,North,3.5,-,N/A,,Scattered Clouds,350,2011-10-10 11:35:00
5:55 AM,30.2,26.6,86,30.20,10.0,Calm,Calm,-,N/A,,Clear,0,2011-10-10 11:55:00
6:15 AM,30.2,26.6,86,30.20,10.0,North,4.6,-,N/A,,Clear,360,2011-10-10 12:15:00
6:35 AM,30.2,26.6,86,30.20,10.0,North,4.6,-,N/A,,Clear,360,2011-10-10 12:35:00
7:15 AM,30.2,26.6,86,30.21,10.0,North,3.5,-,N/A,,Clear,360,2011-10-10 13:15:00
7:35 AM,30.2,26.6,86,30.21,10.0,Calm,Calm,-,N/A,,Clear,0,2011-10-10 13:35:00
7:55 AM,33.8,28.4,81,30.22,10.0,Calm,Calm,-,N/A,,Clear,0,2011-10-10 13:55:00
8:15 AM,35.6,30.2,81,30.22,10.0,Calm,Calm,-,N/A,,Clear,0,2011-10-10 14:15:00
8:35 AM,37.4,32.0,81,30.23,10.0,Calm,Calm,-,N/A,,Clear,0,2011-10-10 14:35:00
8:55 AM,39.2,32.0,75,30.23,10.0,Calm,Calm,-,N/A,,Clear,0,2011-10-10 14:55:00
9:15 AM,42.8,33.8,70,30.23,10.0,Calm,Calm,-,N/A,,Clear,0,2011-10-10 15:15:00
9:35 AM,44.6,33.8,66,30.23,10.0,Calm,Calm,-,N/A,,Clear,0,2011-10-10 15:35:00
9:55 AM,46.4,33.8,62,30.23,10.0,Calm,Calm,-,N/A,,Clear,0,2011-10-10 15:55:00
10:15 AM,48.2,33.8,58,30.23,10.0,Calm,Calm,-,N/A,,Clear,0,2011-10-10 16:15:00
10:35 AM,50.0,32.0,50,30.23,10.0,WNW,3.5,-,N/A,,Clear,290,2011-10-10 16:35:00
10:55 AM,51.8,30.2,44,30.22,10.0,SW,9.2,-,N/A,,Clear,230,2011-10-10 16:55:00
11:15 AM,51.8,30.2,44,30.22,10.0,WSW,8.1,-,N/A,,Clear,240,2011-10-10 17:15:00
11:35 AM,51.8,30.2,44,30.22,10.0,South,5.8,-,N/A,,Clear,190,2011-10-10 17:35:00
12:15 PM,53.6,32.0,44,30.20,10.0,SW,5.8,-,N/A,,Clear,230,2011-10-10 18:15:00
12:35 PM,55.4,30.2,38,30.19,10.0,West,6.9,-,N/A,,Clear,260,2011-10-10 18:35:00
12:55 PM,55.4,30.2,38,30.19,10.0,South,9.2,-,N/A,,Partly Cloudy,190,2011-10-10 18:55:00
1:15 PM,57.2,30.2,36,30.18,10.0,WNW,6.9,16.1,N/A,,Partly Cloudy,290,2011-10-10 19:15:00
1:35 PM,55.4,30.2,38,30.16,10.0,WNW,3.5,-,N/A,,Clear,290,2011-10-10 19:35:00
2:15 PM,57.2,30.2,36,30.15,10.0,South,8.1,-,N/A,,Partly Cloudy,190,2011-10-10 20:15:00
2:55 PM,59.0,30.2,34,30.13,10.0,West,9.2,-,N/A,,Clear,260,2011-10-10 20:55:00
3:35 PM,-9999,-9999,N/A,30.12,10.0,West,5.8,17.3,N/A,,Clear,280,2011-10-10 21:35:00
3:55 PM,59.0,30.2,34,30.12,10.0,SSW,9.2,18.4,N/A,,Clear,210,2011-10-10 21:55:00
4:15 PM,59.0,30.2,34,30.11,10.0,West,6.9,-,N/A,,Clear,260,2011-10-10 22:15:00
4:35 PM,60.8,32.0,34,30.11,10.0,West,9.2,16.1,N/A,,Clear,270,2011-10-10 22:35:00
4:55 PM,59.0,30.2,34,30.11,10.0,WSW,11.5,-,N/A,,Partly Cloudy,250,2011-10-10 22:55:00
5:15 PM,59.0,30.2,34,30.11,10.0,WSW,12.7,-,N/A,,Clear,250,2011-10-10 23:15:00
5:35 PM,57.2,30.2,36,30.11,10.0,WSW,11.5,-,N/A,,Clear,250,2011-10-10 23:35:00
6:15 PM,55.4,32.0,41,30.11,10.0,WSW,9.2,-,N/A,,Clear,240,2011-10-11 00:15:00
6:35 PM,53.6,32.0,44,30.11,10.0,SW,6.9,-,N/A,,Clear,230,2011-10-11 00:35:00
6:55 PM,48.2,30.2,50,30.12,10.0,SSW,8.1,-,N/A,,Clear,210,2011-10-11 00:55:00
7:15 PM,48.2,30.2,50,30.12,10.0,SW,8.1,-,N/A,,Clear,220,2011-10-11 01:15:00
7:35 PM,48.2,30.2,50,30.13,10.0,SW,8.1,-,N/A,,Clear,230,2011-10-11 01:35:00
7:55 PM,46.4,30.2,53,30.14,10.0,SW,6.9,-,N/A,,Clear,230,2011-10-11 01:55:00
8:15 PM,44.6,32.0,61,30.14,10.0,SE,6.9,-,N/A,,Clear,130,2011-10-11 02:15:00
8:35 PM,42.8,30.2,61,30.15,10.0,SSE,5.8,-,N/A,,Clear,150,2011-10-11 02:35:00
8:55 PM,42.8,33.8,70,30.15,10.0,ESE,6.9,-,N/A,,Clear,120,2011-10-11 02:55:00
9:35 PM,39.2,33.8,81,30.15,10.0,East,6.9,-,N/A,,Clear,90,2011-10-11 03:35:00
9:55 PM,39.2,33.8,81,30.15,10.0,East,6.9,-,N/A,,Clear,80,2011-10-11 03:55:00
10:15 PM,39.2,32.0,75,30.15,10.0,East,6.9,-,N/A,,Clear,100,2011-10-11 04:15:00
10:35 PM,39.2,32.0,75,30.15,10.0,East,9.2,-,N/A,,Clear,80,2011-10-11 04:35:00
11:35 PM,35.6,30.2,81,30.14,10.0,East,6.9,-,N/A,,Clear,100,2011-10-11 05:35:00
11:55 PM,35.6,30.2,81,30.14,10.0,East,6.9,-,N/A,,Clear,100,2011-10-11 05:55:00